TimeEDT,TemperatureF,Dew PointF,Humidity,Sea Level PressureIn,VisibilityMPH,Wind Direction,Wind SpeedMPH,Gust SpeedMPH,PrecipitationIn,Events,Conditions,WindDirDegrees,DateUTC
12:09 AM,53.6,51.8,94,29.80,4.0,NNE,3.5,-,0.04,Rain,Rain,30,2013-06-08 04:09:00
12:54 AM,53.1,50.0,89,29.78,7.0,Variable,3.5,-,0.10,Rain,Light Rain,0,2013-06-08 04:54:00
1:54 AM,54.0,50.0,86,29.76,8.0,SSW,4.6,-,0.07,Rain,Light Rain,200,2013-06-08 05:54:00
2:07 AM,53.6,51.8,94,29.75,5.0,NNE,3.5,-,0.02,Rain,Light Rain,30,2013-06-08 06:07:00
2:35 AM,53.6,51.8,94,29.74,10.0,Variable,4.6,-,0.04,Rain,Light Rain,0,2013-06-08 06:35:00
2:54 AM,53.1,50.0,89,29.74,6.0,North,5.8,-,0.06,Rain,Light Rain,10,2013-06-08 06:54:00
3:34 AM,53.6,51.8,94,29.73,4.0,Calm,Calm,-,0.05,Rain,Light Rain,0,2013-06-08 07:34:00
3:49 AM,53.6,51.8,94,29.73,4.0,Calm,Calm,-,0.07,Rain,Light Rain,0,2013-06-08 07:49:00
3:54 AM,53.1,51.1,93,29.73,5.0,Calm,Calm,-,0.08,Rain,Light Rain,0,2013-06-08 07:54:00
4:07 AM,53.6,51.8,94,29.73,5.0,Calm,Calm,-,0.01,Rain,Light Rain,0,2013-06-08 08:07:00
4:54 AM,53.1,51.1,93,29.73,3.0,Variable,3.5,-,0.05,Rain,Light Rain,0,2013-06-08 08:54:00
4:59 AM,53.6,51.8,94,29.73,4.0,Variable,3.5,-,0.00,Rain,Light Rain,0,2013-06-08 08:59:00
5:38 AM,53.6,51.8,94,29.73,5.0,Calm,Calm,-,0.02,Rain,Light Rain,0,2013-06-08 09:38:00
5:54 AM,54.0,51.1,90,29.73,7.0,Calm,Calm,-,0.03,Rain,Light Rain,0,2013-06-08 09:54:00
6:22 AM,53.6,51.8,94,29.74,10.0,SSW,3.5,-,0.01,Rain,Light Rain,200,2013-06-08 10:22:00
6:54 AM,54.0,52.0,93,29.76,10.0,SW,3.5,-,0.01,,Overcast,220,2013-06-08 10:54:00
7:01 AM,53.6,51.8,94,29.76,10.0,Calm,Calm,-,N/A,,Overcast,0,2013-06-08 11:01:00
7:23 AM,53.6,51.8,94,29.77,10.0,Calm,Calm,-,N/A,,Overcast,0,2013-06-08 11:23:00
7:54 AM,55.0,52.0,89,29.77,10.0,Calm,Calm,-,N/A,,Overcast,0,2013-06-08 11:54:00
8:16 AM,55.4,53.6,94,29.79,10.0,WNW,3.5,-,N/A,,Overcast,290,2013-06-08 12:16:00
8:54 AM,57.0,54.0,89,29.81,10.0,West,4.6,-,N/A,,Overcast,280,2013-06-08 12:54:00
9:54 AM,57.0,54.0,89,29.83,7.0,Variable,4.6,-,N/A,,Overcast,0,2013-06-08 13:54:00
10:54 AM,57.9,54.0,87,29.86,8.0,Variable,3.5,-,N/A,,Overcast,0,2013-06-08 14:54:00
11:37 AM,60.8,55.4,82,29.87,10.0,Variable,4.6,-,N/A,,Overcast,0,2013-06-08 15:37:00
11:54 AM,61.0,55.0,81,29.87,10.0,Variable,3.5,-,N/A,,Overcast,0,2013-06-08 15:54:00
12:54 PM,61.0,55.9,83,29.89,10.0,Calm,Calm,-,N/A,,Overcast,0,2013-06-08 16:54:00
1:14 PM,62.6,55.4,77,29.89,10.0,Calm,Calm,-,N/A,,Overcast,0,2013-06-08 17:14:00
1:54 PM,63.0,57.0,81,29.89,10.0,SW,4.6,-,N/A,,Overcast,230,2013-06-08 17:54:00
2:54 PM,64.0,57.0,78,29.90,10.0,WSW,5.8,-,N/A,,Overcast,240,2013-06-08 18:54:00
3:25 PM,66.2,57.2,73,29.90,10.0,WSW,5.8,-,N/A,,Overcast,240,2013-06-08 19:25:00
3:33 PM,66.2,57.2,73,29.91,10.0,WSW,3.5,-,N/A,,Overcast,250,2013-06-08 19:33:00
3:54 PM,66.0,57.9,75,29.91,10.0,West,5.8,-,N/A,,Overcast,260,2013-06-08 19:54:00
4:20 PM,66.2,57.2,73,29.93,10.0,SW,8.1,-,N/A,,Overcast,230,2013-06-08 20:20:00
4:54 PM,66.0,57.0,73,29.94,10.0,WSW,5.8,-,N/A,,Overcast,240,2013-06-08 20:54:00
5:54 PM,64.9,57.0,75,29.95,10.0,SW,6.9,-,N/A,,Overcast,230,2013-06-08 21:54:00
6:54 PM,64.0,55.9,75,29.97,10.0,SW,5.8,-,N/A,,Mostly Cloudy,230,2013-06-08 22:54:00
7:54 PM,63.0,55.9,78,29.99,10.0,WSW,5.8,-,N/A,,Scattered Clouds,240,2013-06-08 23:54:00
8:54 PM,63.0,55.9,78,29.99,10.0,WSW,8.1,-,N/A,,Mostly Cloudy,240,2013-06-09 00:54:00
9:54 PM,63.0,55.9,78,30.03,10.0,SW,6.9,-,N/A,,Overcast,230,2013-06-09 01:54:00
10:54 PM,62.1,55.9,80,30.04,10.0,WSW,9.2,-,N/A,,Overcast,250,2013-06-09 02:54:00
11:54 PM,60.1,54.0,80,30.05,10.0,WSW,8.1,-,N/A,,Mostly Cloudy,250,2013-06-09 03:54:00